CW1575 Weather Reports


Display with metric or nautical units.
time (UTC)temp
F
wind
direction
speed
MPH
gust
MPH
rain 1hr
in
rain 24hr
in
rain mn
in
humidity
%
barometer
mb
20150128160506 50 286 7.0 14.0 0.00 0.00 0.00 33 1019.5
20150128155505 49 288 8.0 17.0 0.00 0.00 0.00 34 1019.4
20150128154506 48 314 10.0 20.0 0.00 0.00 0.00 35 1019.3
20150128153506 47 290 3.0 9.0 0.00 0.00 0.00 36 1019.2
20150128152505 47 309 3.0 8.0 0.00 0.00 0.00 36 1019.1
20150128151505 47 273 3.0 10.0 0.00 0.00 0.00 36 1018.8
20150128150506 47 294 5.0 13.0 0.00 0.00 0.00 36 1018.8
20150128145506 47 296 4.0 14.0 0.00 0.00 0.00 36 1018.4
20150128144505 46 296 7.0 16.0 0.00 0.00 0.00 36 1018.3
20150128143506 46 288 9.0 15.0 0.00 0.00 0.00 37 1017.8
20150128142506 45 331 6.0 12.0 0.00 0.00 0.00 38 1017.8
20150128141506 46 319 2.0 6.0 0.00 0.00 0.00 38 1018.0
20150128140506 46 337 4.0 8.0 0.00 0.00 0.00 38 1017.8
20150128135505 47 354 3.0 9.0 0.00 0.00 0.00 38 1018.0
20150128134506 47 341 3.0 10.0 0.00 0.00 0.00 37 1018.3
20150128133506 48 321 3.0 9.0 0.00 0.00 0.00 37 1018.1
20150128132505 48 317 5.0 13.0 0.00 0.00 0.00 36 1018.2
20150128131506 48 286 3.0 10.0 0.00 0.00 0.00 36 1018.0
20150128130506 48 272 5.0 13.0 0.00 0.00 0.00 36 1018.1
20150128125506 47 289 10.0 16.0 0.00 0.00 0.00 38 1017.3
20150128124506 46 290 5.0 13.0 0.00 0.00 0.00 40 1017.3
20150128123506 46 314 4.0 14.0 0.00 0.00 0.00 41 1017.4
20150128122506 45 302 2.0 5.0 0.00 0.00 0.00 42 1017.5
20150128121506 45 268 2.0 9.0 0.00 0.00 0.00 44 1017.4
20150128120506 44 304 5.0 12.0 0.00 0.00 0.00 46 1017.4
20150128115506 42 288 6.0 14.0 0.00 0.00 0.00 49 1017.1
20150128114505 40 285 3.0 12.0 0.00 0.00 0.00 52 1016.9
20150128113506 39 310 3.0 12.0 0.00 0.00 0.00 54 1016.7
20150128112505 40 83 2.0 7.0 0.00 0.00 0.00 53 1016.7
20150128111505 40 165 1.0 3.0 0.00 0.00 0.00 51 1016.7
20150128110505 41 246 0.0 3.0 0.00 0.00 0.00 49 1016.7
20150128105505 42 235 1.0 2.0 0.00 0.00 0.00 48 1016.7
20150128104506 42 235 1.0 3.0 0.00 0.00 0.00 47 1016.8
20150128103505 43 222 2.0 5.0 0.00 0.00 0.00 45 1016.9
20150128102506 45 182 2.0 3.0 0.00 0.00 0.00 44 1017.0
20150128101506 46 161 1.0 3.0 0.00 0.00 0.00 44 1016.9
20150128100505 47 158 3.0 5.0 0.00 0.00 0.00 44 1016.9
20150128095506 47 312 3.0 7.0 0.00 0.00 0.00 43 1017.1
20150128094505 46 298 3.0 12.0 0.00 0.00 0.00 44 1017.3
20150128093506 44 297 5.0 14.0 0.00 0.00 0.00 46 1016.7
20150128092505 42 259 3.0 12.0 0.00 0.00 0.00 50 1016.7
20150128091506 39 288 6.0 12.0 0.00 0.00 0.00 55 1016.7
20150128090505 36 260 3.0 10.0 0.00 0.00 0.00 60 1016.7
20150128085505 36 214 0.0 3.0 0.00 0.00 0.00 62 1016.8
20150128084505 36 199 2.0 7.0 0.00 0.00 0.00 61 1016.8
20150128083506 36 12 0.0 3.0 0.00 0.00 0.00 60 1016.9
20150128082506 36 215 1.0 2.0 0.00 0.00 0.00 58 1016.9
20150128081506 37 215 1.0 2.0 0.00 0.00 0.00 58 1016.7
20150128080505 37 215 0.0 1.0 0.00 0.00 0.00 57 1016.8
20150128075505 37 215 0.0 2.0 0.00 0.00 0.00 57 1016.8
20150128074505 38 215 1.0 3.0 0.00 0.00 0.00 57 1016.6
20150128073506 38 252 1.0 6.0 0.00 0.00 0.00 57 1016.6
20150128072506 38 311 2.0 3.0 0.00 0.00 0.00 57 1016.9
20150128071506 38 207 0.0 3.0 0.00 0.00 0.00 56 1016.9
20150128070505 39 136 1.0 3.0 0.00 0.00 0.00 56 1016.8
20150128065506 39 135 3.0 5.0 0.00 0.00 0.00 56 1016.9
20150128064505 39 85 2.0 3.0 0.00 0.00 0.00 55 1016.9
20150128063505 39 19 2.0 3.0 0.00 0.00 0.00 55 1016.8
20150128062505 39 19 1.0 2.0 0.00 0.00 0.00 54 1016.7
20150128061506 40 19 0.0 2.0 0.00 0.00 0.00 53 1016.8
20150128060506 40 19 1.0 2.0 0.00 0.00 0.00 52 1016.7
20150128055506 40 19 1.0 2.0 0.00 0.00 0.00 52 1016.8
20150128054506 41 19 1.0 2.0 0.00 0.00 0.00 52 1016.8
20150128053505 41 19 1.0 2.0 0.00 0.00 0.00 51 1016.8
20150128052506 41 19 1.0 3.0 0.00 0.00 0.00 51 1016.9
20150128051505 41 344 2.0 3.0 0.00 0.00 0.00 51 1017.0
20150128050505 41 318 2.0 3.0 0.00 0.00 0.00 51 1017.0
20150128045505 42 318 2.0 3.0 0.00 0.00 0.00 50 1017.1
20150128044505 42 258 2.0 3.0 0.00 0.00 0.00 48 1017.2
20150128043505 43 225 1.0 2.0 0.00 0.00 0.00 47 1017.2
20150128042505 43 225 1.0 2.0 0.00 0.00 0.00 46 1017.1
20150128041506 44 225 0.0 1.0 0.00 0.00 0.00 45 1016.8
20150128040505 44 225 0.0 1.0 0.00 0.00 0.00 44 1016.7
20150128035506 45 225 1.0 2.0 0.00 0.00 0.00 43 1016.9
20150128034506 45 225 0.0 2.0 0.00 0.00 0.00 41 1016.9
20150128033505 46 225 1.0 2.0 0.00 0.00 0.00 40 1016.9
20150128032505 47 225 1.0 2.0 0.00 0.00 0.00 40 1017.1
20150128031505 48 225 0.0 2.0 0.00 0.00 0.00 39 1017.2
20150128030505 49 225 1.0 3.0 0.00 0.00 0.00 37 1017.0
20150128025506 50 225 1.0 2.0 0.00 0.00 0.00 36 1016.9
20150128024505 50 225 1.0 3.0 0.00 0.00 0.00 36 1017.3
20150128023505 51 241 1.0 5.0 0.00 0.00 0.00 35 1017.2
20150128022505 52 315 0.0 2.0 0.00 0.00 0.00 34 1017.2
20150128021505 52 315 1.0 3.0 0.00 0.00 0.00 33 1017.4
20150128020505 53 304 1.0 3.0 0.00 0.00 0.00 33 1017.1
20150128015505 54 303 2.0 3.0 0.00 0.00 0.00 33 1017.2
20150128014505 54 333 2.0 5.0 0.00 0.00 0.00 35 1017.0
20150128013506 55 339 2.0 3.0 0.00 0.00 0.00 35 1017.1
20150128012505 56 346 2.0 3.0 0.00 0.00 0.00 34 1017.2
20150128011505 57 311 1.0 2.0 0.00 0.00 0.00 33 1017.2
20150128010505 59 311 1.0 3.0 0.00 0.00 0.00 31 1017.2
20150128005506 60 5 1.0 3.0 0.00 0.00 0.00 29 1016.9
20150128004506 61 5 2.0 3.0 0.00 0.00 0.00 29 1017.1
20150128003505 62 35 2.0 6.0 0.00 0.00 0.00 28 1017.1
20150128002505 63 348 1.0 8.0 0.00 0.00 0.00 26 1016.9
20150128001505 64 336 2.0 9.0 0.00 0.00 0.00 25 1016.8
20150128000505 65 333 2.0 5.0 0.00 0.00 0.00 24 1017.2
20150127235505 66 14 3.0 7.0 0.00 0.00 0.00 23 1017.0
20150127234505 67 15 3.0 10.0 0.00 0.00 0.00 21 1016.8
20150127233505 68 21 6.0 9.0 0.00 0.00 0.00 20 1016.9
20150127232505 69 22 3.0 10.0 0.00 0.00 0.00 19 1016.9
20150127231505 70 25 7.0 10.0 0.00 0.00 0.00 17 1016.9
20150127230505 71 15 2.0 3.0 0.00 0.00 0.00 15 1016.8
20150127225505 72 307 2.0 5.0 0.00 0.00 0.00 15 1016.9
20150127224505 73 347 2.0 7.0 0.00 0.00 0.00 15 1017.0
20150127223505 73 318 3.0 5.0 0.00 0.00 0.00 14 1016.9
20150127222505 74 342 3.0 5.0 0.00 0.00 0.00 15 1016.9
20150127221505 75 357 3.0 5.0 0.00 0.00 0.00 14 1017.0
20150127220505 76 8 2.0 7.0 0.00 0.00 0.00 14 1017.0
20150127215506 76 42 2.0 3.0 0.00 0.00 0.00 13 1017.1
20150127214505 77 356 4.0 8.0 0.00 0.00 0.00 13 1017.3
20150127213505 77 26 1.0 3.0 0.00 0.00 0.00 13 1017.3
20150127212505 77 323 1.0 5.0 0.00 0.00 0.00 14 1017.4
20150127211505 76 16 2.0 5.0 0.00 0.00 0.00 13 1017.6
20150127210505 76 80 3.0 3.0 0.00 0.00 0.00 12 1017.6
20150127205505 76 102 1.0 6.0 0.00 0.00 0.00 12 1017.8
20150127204505 76 84 4.0 7.0 0.00 0.00 0.00 13 1018.0
20150127203505 75 127 2.0 7.0 0.00 0.00 0.00 14 1018.1
20150127202505 74 159 1.0 3.0 0.00 0.00 0.00 15 1018.3
20150127201505 73 229 2.0 3.0 0.00 0.00 0.00 16 1018.5
20150127200505 72 178 2.0 7.0 0.00 0.00 0.00 16 1018.8
20150127195505 71 182 2.0 3.0 0.00 0.00 0.00 19 1018.6
20150127194505 70 153 2.0 3.0 0.00 0.00 0.00 17 1018.8
20150127193505 70 107 3.0 6.0 0.00 0.00 0.00 17 1019.0
20150127192505 69 122 2.0 3.0 0.00 0.00 0.00 19 1019.3
20150127191505 67 161 1.0 6.0 0.00 0.00 0.00 20 1019.6
20150127190506 66 152 3.0 6.0 0.00 0.00 0.00 20 1019.8
20150127185505 65 160 2.0 5.0 0.00 0.00 0.00 22 1020.1
20150127184505 64 125 3.0 5.0 0.00 0.00 0.00 22 1020.3
20150127183506 63 159 2.0 3.0 0.00 0.00 0.00 23 1020.6
20150127182505 62 211 2.0 3.0 0.00 0.00 0.00 24 1020.8
20150127181505 61 134 2.0 3.0 0.00 0.00 0.00 24 1020.9
20150127180505 60 165 2.0 3.0 0.00 0.00 0.00 26 1021.1
20150127175505 60 101 2.0 3.0 0.00 0.00 0.00 26 1021.3
20150127174505 59 187 2.0 5.0 0.00 0.00 0.00 27 1021.5
20150127173505 58 202 1.0 5.0 0.00 0.00 0.00 29 1021.6
20150127172505 57 131 2.0 6.0 0.00 0.00 0.00 30 1021.7
20150127171505 56 193 2.0 8.0 0.00 0.00 0.00 31 1021.9
20150127170505 54 150 4.0 8.0 0.00 0.00 0.00 33 1021.8
20150127165505 53 124 4.0 7.0 0.00 0.00 0.00 34 1021.8
20150127164505 51 120 2.0 6.0 0.00 0.00 0.00 37 1021.9
20150127163505 49 151 3.0 6.0 0.00 0.00 0.00 40 1022.1
20150127162505 47 162 2.0 7.0 0.00 0.00 0.00 42 1022.1
20150127161505 45 150 2.0 3.0 0.00 0.00 0.00 46 1022.1